Location: Newark
(15.4608°S, 41.1635°W)
Time: 10:07:06
(UTC+00:00)

Courier 1B - Visible Passes

Search period start: 01 March 2021 00:00
Search period end: 11 March 2021 00:00
Orbit: 962 x 1209 km, 28.3° (Epoch: 28 February)

Date Brightness Start Highest point End Pass type
(mag) Time Alt. Az. Time Alt. Az. Time Alt. Az.
01 Mar 10.0 00:45:51 10° WSW 00:48:19 19° SW 00:48:19 19° SW visible
01 Mar 8.5 06:39:37 35° NNE 06:39:37 35° NNE 06:43:41 10° NE visible
01 Mar 8.3 21:55:27 10° WNW 22:03:15 67° SSW 22:11:04 10° ESE visible
01 Mar 9.0 23:51:19 10° WSW 23:58:06 35° SSW 23:58:06 35° SSW visible
02 Mar 9.9 05:49:53 12° NE 05:49:53 12° NE 05:50:17 10° NE visible
02 Mar 9.0 07:36:50 17° NW 07:37:27 18° NNW 07:41:39 10° N visible
02 Mar 8.9 22:56:49 10° W 23:04:07 40° SSW 23:07:47 26° SE visible
03 Mar 10.1 00:52:57 10° WSW 00:54:41 16° SW 00:54:41 16° SW visible
03 Mar 9.3 06:47:03 18° N 06:47:03 18° N 06:49:06 10° NNE visible
03 Mar 8.8 22:02:25 10° W 22:09:54 47° SSW 22:17:25 10° SE visible
03 Mar 9.3 23:58:32 10° WSW 00:04:18 30° SSW 00:04:18 30° SSW visible
04 Mar 9.1 23:04:05 10° WSW 23:11:02 33° S 23:13:51 26° SSE visible
05 Mar 10.3 00:59:46 10° SW 01:00:45 14° SW 01:00:45 14° SW visible
05 Mar 9.1 22:09:38 10° WSW 22:16:43 36° S 22:23:22 12° SE visible
06 Mar 9.4 00:05:32 10° WSW 00:10:15 28° SSW 00:10:15 28° SSW visible
06 Mar 9.0 21:15:16 10° W 21:22:27 41° SSW 21:29:50 10° SE visible
06 Mar 9.1 23:11:14 10° WSW 23:18:03 31° S 23:19:43 29° SSE visible
07 Mar 10.4 01:06:16 10° SW 01:06:36 11° SW 01:06:36 11° SW visible
07 Mar 9.2 22:16:53 10° WSW 22:23:42 32° S 22:29:10 15° SE visible
08 Mar 9.5 00:12:12 10° SW 00:16:03 26° SSW 00:16:03 26° SSW visible
08 Mar 9.2 21:22:32 10° WSW 21:29:22 33° S 21:36:22 10° SE visible
08 Mar 8.9 23:18:05 10° SW 23:25:04 33° S 23:25:28 33° SSE visible
09 Mar 9.1 22:23:56 10° WSW 22:30:43 31° S 22:34:53 20° SE visible
10 Mar 9.6 00:18:37 10° SW 00:21:46 25° SW 00:21:46 25° SW visible
10 Mar 9.2 21:29:44 10° WSW 21:36:23 31° S 21:43:12 10° ESE visible
10 Mar 8.7 23:24:39 10° SW 23:31:11 40° S 23:31:11 40° S visible
